Location: Lugano
(46.0000°N, 8.9670°E)
Time: 10:48:29
(UTC+02:00)

DUCHIFAT 1 - Visible Passes

Search period start: 20 April 2026 00:00
Search period end: 30 April 2026 00:00
Orbit: 399 x 404 km, 98.1° (Epoch: 20 April)

Date Brightness Start Highest point End Pass type
(mag) Time Alt. Az. Time Alt. Az. Time Alt. Az.
20 Apr ? 21:00:37 10° ESE 21:03:07 24° ENE 21:05:43 10° NNE visible
20 Apr ? 22:33:16 13° SW 22:34:50 18° W 22:37:05 10° NW visible
21 Apr ? 21:42:54 21° SSE 21:44:53 89° NE 21:48:02 10° NNW visible
22 Apr ? 20:52:55 10° ESE 20:55:11 19° ENE 20:57:27 10° NNE visible
22 Apr ? 22:25:04 15° SW 22:26:45 23° W 22:29:20 10° NW visible
23 Apr ? 21:34:29 18° SSE 21:36:39 65° ENE 21:39:46 10° N visible
24 Apr ? 22:16:25 17° SSW 22:18:14 31° W 22:21:04 10° NW visible
25 Apr ? 21:25:37 15° SE 21:28:00 46° ENE 21:31:01 10° N visible
26 Apr ? 22:07:20 18° SSW 22:09:19 42° W 22:12:19 10° NNW visible
27 Apr ? 21:16:20 11° SE 21:18:56 33° ENE 21:21:46 10° N visible
27 Apr ? 22:49:16 10° WSW 22:50:44 13° W 22:52:13 10° WNW visible
28 Apr ? 21:57:49 18° S 21:59:58 61° WSW 22:03:03 10° NNW visible
29 Apr ? 21:06:53 10° SE 21:09:27 24° ENE 21:12:02 10° NNE visible
29 Apr ? 22:39:11 11° SW 22:41:06 17° W 22:43:15 10° NW visible
